| time (UTC) | temp C | wind direction | speed KPH | gust KPH | rain 1hr cm | rain 24hr cm | rain mn cm | humidity % | barometer mb |
| 20260503200820 | 15 | 162 | 6.4 | 19.3 | 0.00 | 0.00 | 0.00 | 44 | 1013.5 |
| 20260503195852 | 15 | 159 | 6.4 | 16.1 | 0.00 | 0.00 | 0.00 | 44 | 1013.5 |
| 20260503194833 | 15 | 150 | 8.0 | 16.1 | 0.00 | 0.00 | 0.00 | 43 | 1013.7 |
| 20260503193825 | 15 | 189 | 11.3 | 17.7 | 0.00 | 0.00 | 0.00 | 43 | 1014.1 |
| 20260503192816 | 15 | 200 | 4.8 | 19.3 | 0.00 | 0.00 | 0.00 | 45 | 1014.5 |
| 20260503191834 | 15 | 196 | 4.8 | 19.3 | 0.00 | 0.00 | 0.00 | 44 | 1014.5 |
| 20260503190824 | 15 | 194 | 9.7 | 19.3 | 0.00 | 0.00 | 0.00 | 43 | 1014.7 |
| 20260503185828 | 15 | 251 | 3.2 | 14.5 | 0.00 | 0.00 | 0.00 | 44 | 1014.8 |
| 20260503184830 | 15 | 186 | 8.0 | 17.7 | 0.00 | 0.00 | 0.00 | 46 | 1014.8 |
| 20260503183820 | 15 | 221 | 9.7 | 17.7 | 0.00 | 0.00 | 0.00 | 43 | 1015.0 |
| 20260503182837 | 15 | 171 | 4.8 | 24.1 | 0.00 | 0.00 | 0.00 | 41 | 1015.2 |
| 20260503181834 | 15 | 176 | 4.8 | 17.7 | 0.00 | 0.00 | 0.00 | 48 | 1015.2 |
| 20260503180825 | 14 | 199 | 9.7 | 20.9 | 0.00 | 0.00 | 0.00 | 43 | 1015.4 |
| 20260503175831 | 15 | 190 | 9.7 | 19.3 | 0.00 | 0.00 | 0.00 | 41 | 1015.5 |
| 20260503174832 | 15 | 173 | 6.4 | 20.9 | 0.00 | 0.00 | 0.00 | 43 | 1015.5 |
| 20260503173827 | 14 | 169 | 4.8 | 14.5 | 0.00 | 0.00 | 0.00 | 45 | 1015.7 |
| 20260503172819 | 14 | 183 | 6.4 | 17.7 | 0.00 | 0.00 | 0.00 | 46 | 1016.0 |
| 20260503171837 | 14 | 155 | 3.2 | 11.3 | 0.00 | 0.00 | 0.00 | 47 | 1016.3 |
| 20260503170828 | 14 | 159 | 3.2 | 14.5 | 0.00 | 0.00 | 0.00 | 44 | 1016.3 |
| 20260503150824 | 11 | 179 | 4.8 | 14.5 | 0.00 | 0.00 | 0.00 | 60 | 1017.9 |
| 20260503130820 | 5 | 159 | 4.8 | 11.3 | 0.00 | 0.00 | 0.00 | 74 | 1017.7 |
| 20260503110816 | 1 | 153 | 1.6 | 8.0 | 0.00 | 0.00 | 0.00 | 81 | 1017.0 |
| 20260503080819 | 2 | 360 | 0.0 | 3.2 | 0.00 | 0.00 | 0.00 | 80 | 1016.3 |
| 20260503072834 | 2 | 360 | 0.0 | 1.6 | 0.00 | 0.00 | 0.00 | 81 | 1016.2 |
| 20260503071826 | 2 | 360 | 0.0 | 1.6 | 0.00 | 0.00 | 0.00 | 81 | 1016.2 |
| 20260503070817 | 2 | 360 | 0.0 | 1.6 | 0.00 | 0.00 | 0.00 | 80 | 1016.2 |
| 20260503054829 | 2 | 360 | 0.0 | 0.0 | 0.00 | 0.00 | 0.00 | 79 | 1016.5 |
| 20260503053824 | 2 | 360 | 0.0 | 1.6 | 0.00 | 0.00 | 0.00 | 79 | 1016.5 |
| 20260503052815 | 2 | 360 | 0.0 | 0.0 | 0.00 | 0.00 | 0.00 | 79 | 1016.5 |
| 20260503051836 | 2 | 360 | 0.0 | 1.6 | 0.00 | 0.00 | 0.00 | 79 | 1016.5 |
| 20260503050825 | 2 | 360 | 0.0 | 0.0 | 0.00 | 0.00 | 0.00 | 79 | 1016.5 |
| 20260503045855 | 2 | 360 | 0.0 | 0.0 | 0.00 | 0.00 | 0.00 | 79 | 1016.6 |
| 20260503044835 | 2 | 360 | 0.0 | 0.0 | 0.00 | 0.00 | 0.00 | 79 | 1016.5 |
| 20260503043827 | 2 | 360 | 0.0 | 0.0 | 0.00 | 0.00 | 0.00 | 79 | 1016.5 |
| 20260503042819 | 3 | 360 | 0.0 | 0.0 | 0.00 | 0.00 | 0.00 | 78 | 1016.6 |
| 20260503041837 | 3 | 360 | 0.0 | 0.0 | 0.00 | 0.00 | 0.00 | 78 | 1016.6 |
| 20260503040833 | 3 | 360 | 0.0 | 0.0 | 0.00 | 0.00 | 0.00 | 77 | 1016.6 |
| 20260503035835 | 3 | 360 | 0.0 | 0.0 | 0.00 | 0.00 | 0.00 | 77 | 1016.7 |
| 20260503034819 | 3 | 360 | 0.0 | 0.0 | 0.00 | 0.00 | 0.00 | 77 | 1016.8 |
| 20260503033839 | 3 | 360 | 0.0 | 0.0 | 0.00 | 0.00 | 0.00 | 76 | 1016.8 |
| 20260503032832 | 3 | 360 | 0.0 | 0.0 | 0.00 | 0.00 | 0.00 | 75 | 1016.7 |
| 20260503031827 | 4 | 360 | 0.0 | 0.0 | 0.00 | 0.00 | 0.00 | 74 | 1016.7 |
| 20260503030819 | 5 | 360 | 0.0 | 0.0 | 0.00 | 0.00 | 0.00 | 73 | 1016.7 |
| 20260503025820 | 5 | 360 | 0.0 | 0.0 | 0.00 | 0.00 | 0.00 | 71 | 1016.6 |
| 20260503024845 | 5 | 360 | 0.0 | 0.0 | 0.00 | 0.00 | 0.00 | 68 | 1016.6 |
| 20260503023840 | 6 | 360 | 0.0 | 1.6 | 0.00 | 0.00 | 0.00 | 62 | 1016.6 |
| 20260503022832 | 6 | 360 | 0.0 | 0.0 | 0.00 | 0.00 | 0.00 | 61 | 1016.5 |
| 20260503021826 | 6 | 360 | 0.0 | 1.6 | 0.00 | 0.00 | 0.00 | 60 | 1016.4 |
| 20260503020817 | 6 | 360 | 0.0 | 1.6 | 0.00 | 0.00 | 0.00 | 59 | 1016.3 |
| 20260503015820 | 6 | 360 | 0.0 | 3.2 | 0.00 | 0.00 | 0.00 | 59 | 1016.2 |
| 20260503014824 | 7 | 5 | 1.6 | 4.8 | 0.00 | 0.00 | 0.00 | 58 | 1016.1 |
| 20260503013816 | 7 | 336 | 1.6 | 9.7 | 0.00 | 0.00 | 0.00 | 56 | 1015.9 |
| 20260503012835 | 7 | 355 | 1.6 | 6.4 | 0.00 | 0.00 | 0.00 | 56 | 1015.7 |
| 20260503011828 | 7 | 334 | 3.2 | 9.7 | 0.00 | 0.00 | 0.00 | 55 | 1015.6 |
| 20260503010823 | 7 | 293 | 3.2 | 9.7 | 0.00 | 0.00 | 0.00 | 54 | 1015.5 |
| 20260503005828 | 8 | 329 | 4.8 | 9.7 | 0.00 | 0.00 | 0.00 | 53 | 1015.5 |
| 20260503004830 | 8 | 310 | 4.8 | 14.5 | 0.00 | 0.00 | 0.00 | 52 | 1015.4 |
| 20260503003822 | 8 | 25 | 4.8 | 14.5 | 0.00 | 0.00 | 0.00 | 51 | 1015.3 |
| 20260503002841 | 8 | 330 | 6.4 | 12.9 | 0.00 | 0.00 | 0.00 | 50 | 1015.2 |
| 20260503001838 | 8 | 333 | 4.8 | 12.9 | 0.00 | 0.00 | 0.00 | 49 | 1015.0 |
| 20260503000828 | 9 | 311 | 6.4 | 12.9 | 0.00 | 0.00 | 0.00 | 48 | 1015.0 |
| 20260502235831 | 9 | 360 | 6.4 | 14.5 | 0.00 | 0.00 | 0.00 | 47 | 1014.8 |
| 20260502234833 | 9 | 336 | 4.8 | 16.1 | 0.00 | 0.00 | 0.00 | 47 | 1014.8 |
| 20260502233825 | 10 | 300 | 8.0 | 14.5 | 0.00 | 0.00 | 0.00 | 47 | 1014.8 |
| 20260502232818 | 10 | 302 | 4.8 | 16.1 | 0.00 | 0.00 | 0.00 | 46 | 1014.7 |
| 20260502231858 | 10 | 312 | 8.0 | 19.3 | 0.00 | 0.00 | 0.00 | 45 | 1014.7 |
| 20260502230828 | 10 | 360 | 4.8 | 14.5 | 0.00 | 0.00 | 0.00 | 45 | 1014.6 |
| 20260502225833 | 10 | 269 | 8.0 | 20.9 | 0.00 | 0.00 | 0.00 | 44 | 1014.6 |
| 20260502224816 | 10 | 342 | 6.4 | 17.7 | 0.00 | 0.00 | 0.00 | 43 | 1014.5 |
| 20260502223835 | 10 | 315 | 8.0 | 17.7 | 0.00 | 0.00 | 0.00 | 43 | 1014.6 |
| 20260502222855 | 11 | 297 | 4.8 | 20.9 | 0.00 | 0.00 | 0.00 | 42 | 1014.5 |
| 20260502221826 | 11 | 304 | 6.4 | 20.9 | 0.00 | 0.00 | 0.00 | 44 | 1014.6 |
| 20260502220817 | 10 | 323 | 6.4 | 14.5 | 0.00 | 0.00 | 0.00 | 42 | 1014.4 |
| 20260502215821 | 10 | 300 | 4.8 | 12.9 | 0.00 | 0.00 | 0.00 | 42 | 1014.4 |
| 20260502214825 | 10 | 293 | 8.0 | 19.3 | 0.00 | 0.00 | 0.00 | 42 | 1014.4 |
| 20260502213816 | 11 | 288 | 11.3 | 22.5 | 0.00 | 0.00 | 0.00 | 40 | 1014.4 |
| 20260502212836 | 11 | 302 | 8.0 | 20.9 | 0.00 | 0.00 | 0.00 | 41 | 1014.4 |
| 20260502211828 | 11 | 281 | 8.0 | 20.9 | 0.00 | 0.00 | 0.00 | 42 | 1014.3 |
| 20260502210817 | 11 | 279 | 4.8 | 27.4 | 0.00 | 0.00 | 0.00 | 42 | 1014.3 |
| 20260502205819 | 11 | 273 | 9.7 | 27.4 | 0.00 | 0.00 | 0.00 | 41 | 1014.2 |
| 20260502204821 | 11 | 301 | 8.0 | 22.5 | 0.00 | 0.00 | 0.00 | 40 | 1014.3 |
| 20260502203840 | 12 | 24 | 11.3 | 20.9 | 0.00 | 0.00 | 0.00 | 40 | 1014.2 |
| 20260502202831 | 12 | 321 | 6.4 | 16.1 | 0.00 | 0.00 | 0.00 | 42 | 1014.2 |
| 20260502201823 | 11 | 330 | 8.0 | 24.1 | 0.00 | 0.00 | 0.00 | 42 | 1014.4 |